Timeline UpdatesTrip UpdatesNews PostsPvt PostsTravel TipsAdmin PostsConv PostsFollowed PostsChat RequestsBlog PostsPNR Posts

Disclaimer
Search
 
 
Wed Jul 30, 2014 08:28:08 ISTHomeTrainsΣChainsAtlasPNRForumGalleryNewsFAQTripsMembersLoginFeedback
No Recent News for this Train
Other Trains in the News **new
Latest...
.
Fri May 09, 2014 (10:57PM)
⇐ Return Journey: Train# 14055

14056/Brahmaputra Mail

May 09 2014 (10:58PM)
Change Departure Station:
Change Arrival Station:
Post a Train Travel TipPost a Train Travel Tip **new
Post a Comment/Question/Picture/VideoPost a Comment/Question/Picture/Video
Inaugural Run
Tue Oct 01, 1974
Pantry/Catering
✓ Pantry Car Avbl
✓ Catering Avbl
RSA - Rake Sharing
NO RSA
Rake/Coach Composition
LOCO-SLR-GS-GS-GS-S1-S2-S3-S4-S5-S6-S7-S8-S9-S10-S11-PC-A1-B1-B2-B3-GS-GS-GS-SLR
Loco
GZB WAP-4 (DLI-KIUL); SGUJ WDP-4/4B/4D (KIUL-DBRG)
News    PNR    Forum    Time-Table    Availability    Fare Chart    Map    Arr/Dep History    Trips    Gallery    ΣChains    X/O    Timeline    
Travel Time: 52h 20m    59 halts    Distance: 2598 km    Avg Speed: 49 km/hr
Type: Mail/Express
Zone: NR/Northern
Departs @ 23:40 (Avg 3m late)
Platform# 16
SMTWTFS
Old Delhi Junction/DLI 
Arrives @ 04:00 +3 nights (Avg 4h 57m late)
Platform# 1
SMTWTFS
Dibrugarh/DBRG 

59 halts. 436 intermediate Stations between Old Delhi Junction and Dibrugarh

Show ALL intermediate Stations  Show Old Time-Table

#CodeStation NameX/OArrivesAvgDepartsAvgHaltPFDay#KmSpeedElevZoneAddress
1DLI»Old Delhi Junction (16)»  -23:40+31610.059219mNRNear Chandni Chowk Metro Station, Delhi NCT
2KRJKhurja Junction (4)  01:04+3301:06+332m3282.782199mNCRBulandshahr, Uttar Pradesh
3ALJNAligarh Junction (4)XO  01:38+3201:43+325m22126.273192mNCRAligarh, Uttar Pradesh
4TDLTundla Junction (5)XO  02:47+3402:52+365m--2204.481167mNCRDistt.Firozabad, Uttar Pradesh
5SKBShikohabad Junction (4)O  03:19+4603:21+462m22240.881166mNCRDistrict Firozabad, Uttar Pradesh
6CNBKanpur Central (10)X  05:45+1:1705:55+1:1910m--2435.578128mNCRKANPUR-208 001, Uttar Pradesh
7ALDAllahabad Junction (10)X  08:25+1:4808:35+1:5210m42629.974100mNCRAllahabad 211003, Uttar Pradesh
8MZPMirzapur (3)X  09:48+2:3309:50+2:362m--2719.44288mNCRMirzapur, Uttar Pradesh
9MGSMughal Sarai Junction (8)  11:20+3:0911:30+3:1110m12782.67583mECRMughalsarai 232101, Uttar Pradesh
10DLNDildarnagar Junction (2)  12:16+3:2212:18+3:222m--2840.37572mECRDildarnagar, Uttar Pradesh
11BXRBuxar (3)X  12:47+3:2612:49+3:262m--2876.58467mECRBuxar, Bihar
12ARAAra Junction (3)X  13:38+3:3513:40+3:352m--2945.04563mECRarrah( 06182-233411), Bihar
13PNBEPatna Junction (10)X  14:45+3:4314:55+3:4610m12993.94257mECRPatna 800001, Bihar
14PNCPatna Saheb (3)  15:09+4:0215:11+4:042m221003.87859mECRPatna, Bihar
15MKAMokama Junction (3)  16:12+4:4816:14+4:482m--21083.23748mECRPatna, Bihar
16KIULKiul Junction (5)17:10+4:5117:30+5:0420m421117.46653mECRDist. Lakhisarai, Bihar
17AHAAbhaipur  17:51+5:1917:53+5:192m--21140.46052mERAbhaipur, Bihar
18JMPJamalpur Junction (4)X  18:15+5:2218:30+5:1815m--21162.26559mERJamalpur 06344-243101, Bihar
19SGGSultanGanj (3)  18:57+5:2518:59+5:262m--21191.33342mERSultanganj, Bihar
20BGPBhagalpur Junction (6)  19:45+5:0719:57+5:0512m121216.36949mERBhagalpur, Bihar
21CLGKahalgaon (2)  20:23+5:2220:25+5:232m121246.33744mERBhagalpur, Bihar
22SBGSahibganj Junction (3)X  21:37+5:1021:45+5:158m121290.24838mERSahibganj, Jharkhand
23BHWBarharwa Junction (3)  22:53+5:1822:55+5:192m221344.74036mERBarharwa, Jharkhand
24NFKNew Farakka Junction (3)X  23:22+5:2423:24+5:242m221362.73832mERDist - Murshidabad, West Bengal
25MLDTMalda Town (5)XO  00:20+5:1100:40+5:0820m--31397.87830mERDist - Malda, West Bengal
26BOEBarsoi Junction (3)X  01:50+5:3701:52+5:392m--31488.37937mNFRdist- katihar, Bihar
27KNEKishanGanj (3)  02:36+5:5202:41+5:525m--31545.95052mNFRKishanganj, Bihar
28NJPNew Jalpaiguri Junction (8)  04:25+5:3604:45+5:3920m131633.252114mNFRCity-Siliguri . Dist-Jalpaiguri, West Bengal
29JPEJalpaiguri Road (2)  05:24+5:5605:26+5:582m131666.77189mNFRdist - Jalpaiguri 735102, West Bengal
30DQGDhupguri (2)  05:53+6:0605:58+6:075m--31698.56775mNFRDist - Jalpaiguri, West Bengal
31FLKFalakata (3)  06:18+6:1006:20+6:132m--31720.94567mNFRDist - Alipurduar, West Bengal
32NCBNew Cooch Behar Junction (5)  07:10+6:0607:15+6:075m--31758.75647mNFRDist : Cooch Behar-736101, West Bengal
33NOQNew Alipurduar (2)  07:35+6:1307:40+6:145m--31777.47848mNFRDist - Alipurduar - 736121, West Bengal
34GOGHGossaigaon Hat (3)  08:15+6:1808:17+6:192m--31823.073 NFRKokrajhar, Assam
35FKMFakiragram Junction (4)X  08:36+6:1508:38+6:162m331846.35944mNFR03661-283454, Assam
36KOJKokrajhar (3)X  08:48+6:1608:50+6:162m--31856.22246mNFR03661-270618, Assam
37NBQNew Bongaigaon Junction (4)  10:05+5:5110:15+5:5110m--31884.12458mNFR783381., Assam
38BNGNBongaigaon (3)  10:21+5:5210:23+5:542m--31886.56360mNFRBongaigaon, Assam
39BJFBijniX  10:37+5:5810:39+6:002m--31901.25854mNFRDist: Chirang, Assam
40BPRDBarpeta Road  11:07+6:0111:12+5:575m--31928.15849mNFRHowli, Assam
41NLVNalbariX  12:02+5:5612:04+5:582m--31976.54754mNFRNalbari, Assam
42RNYRangiya Junction (5)X  12:25+5:5712:35+5:5410m--31993.03058mNFRRangia, Assam
43KYQKamakhya Junction (4)  13:57+5:4214:02+5:445m--32033.71855mNFRDist - KAMRUP, Assam
44GHYGuwahati (7)X  14:25+5:4714:40+5:5515m--32040.65060mNFRGuwahati, Assam
45DGUDigaru  15:20+5:5515:22+5:562m--32074.25658mNFRDigaru, Assam
46JIDJagi Road (2)  15:47+6:0315:49+6:032m--32097.76662mNFRJagiroad, Assam
47CPKChaparmukh Junction (3)X  16:20+6:1116:25+6:085m--32131.75265mNFRChaparmukh. Dist. Nagaon. Changing point for HBN/SHTT, Assam
48KWMKampurX  16:45+6:0716:47+6:042m--32148.95968mNFRKampur, Assam
49JMKJamunamukhX  16:58+6:0617:00+6:062m--32159.73570mNFRNational Highway 36, Assam
50HJIHojai (2)  17:28+5:5817:30+5:592m--32176.26078mNFRHojai Rd. Ph:- 03674-252136., Assam
51LKALankaX  17:44+6:0217:46+6:032m--32190.22789mNFRLanka, Assam
52LMGLumding Junction (5)O  18:55+5:4019:10+5:4015m332221.434142mNFRLumding, Assam
53DPUDiphu (2)  20:06+5:4920:08+5:502m--32253.560180mNFRDiphu, Assam
54DMVDimapur (3)  20:45+5:4320:55+5:4310m--32290.853153mNFRDimapur, Nagaland
55BXJBokajan (2)  21:11+5:4121:13+5:422m--32305.044138mNFRBokajan, Assam
56FKGFurkating Junction (2)  22:30+5:4522:32+5:462m--32361.053 NFRK B Rd, Assam
57MXNMariani Junction (4)X  23:15+5:5023:25+5:4610m132399.072117mNFRDist. Jorhat Pin-785634, Assam
58SLGRSimaluguri Junction (3)  00:10+5:5900:15+5:585m142453.26899mNFRSimaluguri, Assam
59BOJBhojo  00:45+6:0000:50+5:575m--42487.139107mNFRBhojo Railway Station, Assam
60NTSKNew Tinsukia Junction (3)  02:35+5:4202:45+5:4210m--42555.734124mNFRDist: Tinsukia, Assam
61DBRG•Dibrugarh (4)•  04:00+4:57-142597.7-108mNFRDibrugarh 786003, Assam
Scroll to Top
Scroll to Bottom